| time (UTC) | temp F | wind direction | speed MPH | gust MPH | rain 1hr in | rain 24hr in | rain mn in | humidity % | barometer mb |
| 20260509201018 | 73 | 52 | 5.0 | 6.0 | 0.00 | 0.00 | 0.00 | 56 | 1012.4 |
| 20260509200020 | 74 | 206 | 2.0 | 4.0 | 0.00 | 0.00 | 0.00 | 54 | 1012.4 |
| 20260509195142 | 72 | 152 | 4.0 | 5.0 | 0.00 | 0.00 | 0.00 | 57 | 1012.6 |
| 20260509194023 | 74 | 184 | 4.0 | 7.0 | 0.00 | 0.00 | 0.00 | 55 | 1012.7 |
| 20260509193024 | 71 | 230 | 3.0 | 6.0 | 0.00 | 0.00 | 0.00 | 57 | 1012.7 |
| 20260509192025 | 73 | 106 | 5.0 | 10.0 | 0.00 | 0.00 | 0.00 | 56 | 1012.7 |
| 20260509191026 | 73 | 120 | 6.0 | 11.0 | 0.00 | 0.00 | 0.00 | 56 | 1012.7 |
| 20260509190028 | 73 | 109 | 4.0 | 10.0 | 0.00 | 0.00 | 0.00 | 56 | 1012.9 |
| 20260509185023 | 74 | 105 | 6.0 | 10.0 | 0.00 | 0.00 | 0.00 | 57 | 1013.0 |
| 20260509184018 | 72 | 55 | 6.0 | 9.0 | 0.00 | 0.00 | 0.00 | 58 | 1013.2 |
| 20260509183031 | 71 | 101 | 5.0 | 8.0 | 0.00 | 0.00 | 0.00 | 58 | 1013.4 |
| 20260509182112 | 72 | 12 | 7.0 | 9.0 | 0.00 | 0.00 | 0.00 | 58 | 1013.4 |
| 20260509181015 | 71 | 18 | 5.0 | 7.0 | 0.00 | 0.00 | 0.00 | 60 | 1013.7 |
| 20260509180016 | 71 | 61 | 6.0 | 9.0 | 0.00 | 0.00 | 0.00 | 58 | 1013.9 |
| 20260509175019 | 70 | 76 | 6.0 | 9.0 | 0.00 | 0.00 | 0.00 | 60 | 1013.9 |
| 20260509174020 | 70 | 47 | 7.0 | 9.0 | 0.00 | 0.00 | 0.00 | 59 | 1014.0 |
| 20260509173021 | 69 | 53 | 4.0 | 6.0 | 0.00 | 0.00 | 0.00 | 61 | 1014.3 |
| 20260509172022 | 68 | 354 | 5.0 | 7.0 | 0.00 | 0.00 | 0.00 | 61 | 1014.6 |
| 20260509171023 | 67 | 20 | 5.0 | 8.0 | 0.00 | 0.00 | 0.00 | 64 | 1014.7 |
| 20260509170024 | 67 | 46 | 5.0 | 7.0 | 0.00 | 0.00 | 0.00 | 63 | 1015.0 |
| 20260509165026 | 67 | 33 | 5.0 | 7.0 | 0.00 | 0.00 | 0.00 | 62 | 1014.9 |
| 20260509164021 | 67 | 26 | 5.0 | 7.0 | 0.00 | 0.00 | 0.00 | 63 | 1014.8 |
| 20260509163017 | 67 | 56 | 5.0 | 7.0 | 0.00 | 0.00 | 0.00 | 62 | 1014.8 |
| 20260509162030 | 67 | 72 | 4.0 | 7.0 | 0.00 | 0.00 | 0.00 | 60 | 1014.4 |
| 20260509161111 | 69 | 16 | 5.0 | 9.0 | 0.00 | 0.00 | 0.00 | 59 | 1014.3 |
| 20260509160015 | 68 | 17 | 6.0 | 8.0 | 0.00 | 0.00 | 0.00 | 60 | 1014.4 |
| 20260509155017 | 68 | 47 | 6.0 | 9.0 | 0.00 | 0.00 | 0.00 | 60 | 1014.6 |
| 20260509154018 | 68 | 311 | 4.0 | 6.0 | 0.00 | 0.00 | 0.00 | 58 | 1014.8 |
| 20260509153018 | 67 | 53 | 6.0 | 9.0 | 0.00 | 0.00 | 0.00 | 60 | 1014.7 |
| 20260509152019 | 68 | 61 | 6.0 | 9.0 | 0.00 | 0.00 | 0.00 | 60 | 1014.9 |
| 20260509151021 | 68 | 6 | 5.0 | 7.0 | 0.00 | 0.00 | 0.00 | 60 | 1014.9 |
| 20260509150022 | 66 | 22 | 5.0 | 7.0 | 0.00 | 0.00 | 0.00 | 62 | 1014.8 |
| 20260509145125 | 66 | 45 | 6.0 | 8.0 | 0.00 | 0.00 | 0.00 | 61 | 1014.9 |
| 20260509144126 | 66 | 37 | 6.0 | 9.0 | 0.00 | 0.00 | 0.00 | 62 | 1015.0 |
| 20260509143020 | 65 | 3 | 6.0 | 7.0 | 0.00 | 0.00 | 0.00 | 64 | 1015.0 |
| 20260509142015 | 65 | 22 | 4.0 | 7.0 | 0.00 | 0.00 | 0.00 | 64 | 1015.1 |
| 20260509141028 | 63 | 45 | 4.0 | 6.0 | 0.00 | 0.00 | 0.00 | 64 | 1015.2 |
| 20260509140029 | 63 | 30 | 4.0 | 5.0 | 0.00 | 0.00 | 0.00 | 63 | 1015.2 |
| 20260509135031 | 63 | 321 | 3.0 | 5.0 | 0.00 | 0.00 | 0.00 | 62 | 1015.1 |
| 20260509134112 | 63 | 332 | 3.0 | 4.0 | 0.00 | 0.00 | 0.00 | 64 | 1015.1 |
| 20260509131024 | 61 | 71 | 3.0 | 5.0 | 0.00 | 0.00 | 0.00 | 65 | 1014.9 |
| 20260509130025 | 62 | 23 | 1.0 | 5.0 | 0.00 | 0.00 | 0.00 | 65 | 1015.0 |
| 20260509125126 | 62 | 0.0 | 0.0 | 0.00 | 0.00 | 0.00 | 65 | 1015.0 | |
| 20260509124027 | 62 | 0.0 | 0.0 | 0.00 | 0.00 | 0.00 | 63 | 1015.1 | |
| 20260509123122 | 61 | 337 | 2.0 | 4.0 | 0.00 | 0.00 | 0.00 | 65 | 1015.1 |
| 20260509122018 | 61 | 0.0 | 0.0 | 0.00 | 0.00 | 0.00 | 64 | 1015.1 | |
| 20260509121111 | 60 | 0.0 | 0.0 | 0.00 | 0.00 | 0.00 | 64 | 1015.0 | |
| 20260509120014 | 60 | 0.0 | 0.0 | 0.00 | 0.00 | 0.00 | 65 | 1015.1 | |
| 20260509115016 | 59 | 0.0 | 0.0 | 0.00 | 0.00 | 0.00 | 63 | 1015.0 | |
| 20260509114017 | 59 | 0.0 | 0.0 | 0.00 | 0.00 | 0.00 | 62 | 1015.0 | |
| 20260509113018 | 59 | 0.0 | 0.0 | 0.00 | 0.00 | 0.00 | 62 | 1015.0 | |
| 20260509112019 | 59 | 0.0 | 0.0 | 0.00 | 0.00 | 0.00 | 62 | 1014.9 | |
| 20260509111020 | 58 | 0.0 | 0.0 | 0.00 | 0.00 | 0.00 | 62 | 1014.7 | |
| 20260509110022 | 58 | 262 | 3.0 | 4.0 | 0.00 | 0.00 | 0.00 | 63 | 1014.7 |
| 20260509105023 | 57 | 270 | 1.0 | 4.0 | 0.00 | 0.00 | 0.00 | 64 | 1014.5 |
| 20260509104024 | 57 | 0.0 | 0.0 | 0.00 | 0.00 | 0.00 | 64 | 1014.4 | |
| 20260509103025 | 57 | 0.0 | 0.0 | 0.00 | 0.00 | 0.00 | 64 | 1014.4 | |
| 20260509102020 | 57 | 141 | 2.0 | 4.0 | 0.00 | 0.00 | 0.00 | 64 | 1014.4 |
| 20260509101016 | 57 | 130 | 1.0 | 3.0 | 0.00 | 0.00 | 0.00 | 64 | 1014.2 |
| 20260509100029 | 57 | 177 | 3.0 | 4.0 | 0.00 | 0.00 | 0.00 | 64 | 1014.3 |
| 20260509095032 | 57 | 169 | 3.0 | 5.0 | 0.00 | 0.00 | 0.00 | 64 | 1014.2 |
| 20260509094115 | 57 | 198 | 2.0 | 4.0 | 0.00 | 0.00 | 0.00 | 65 | 1014.2 |
| 20260509093016 | 57 | 167 | 2.0 | 3.0 | 0.00 | 0.00 | 0.00 | 66 | 1014.2 |
| 20260509092016 | 57 | 138 | 3.0 | 4.0 | 0.00 | 0.00 | 0.00 | 66 | 1014.3 |
| 20260509091018 | 58 | 127 | 2.0 | 3.0 | 0.00 | 0.00 | 0.00 | 63 | 1014.3 |
| 20260509090120 | 58 | 155 | 1.0 | 3.0 | 0.00 | 0.00 | 0.00 | 63 | 1014.4 |
| 20260509085041 | 58 | 207 | 1.0 | 2.0 | 0.00 | 0.00 | 0.00 | 62 | 1014.4 |
| 20260509084030 | 59 | 165 | 2.0 | 3.0 | 0.00 | 0.00 | 0.00 | 61 | 1014.4 |
| 20260509083020 | 59 | 201 | 3.0 | 5.0 | 0.00 | 0.00 | 0.00 | 61 | 1014.4 |
| 20260509082022 | 59 | 200 | 4.0 | 6.0 | 0.00 | 0.00 | 0.00 | 60 | 1014.6 |
| 20260509081023 | 59 | 192 | 5.0 | 8.0 | 0.00 | 0.00 | 0.00 | 60 | 1014.6 |
| 20260509080025 | 59 | 205 | 5.0 | 6.0 | 0.00 | 0.00 | 0.00 | 60 | 1014.6 |
| 20260509075026 | 60 | 221 | 4.0 | 8.0 | 0.00 | 0.00 | 0.00 | 59 | 1014.6 |
| 20260509074027 | 60 | 211 | 4.0 | 5.0 | 0.00 | 0.00 | 0.00 | 59 | 1014.6 |
| 20260509073029 | 60 | 204 | 4.0 | 5.0 | 0.00 | 0.00 | 0.00 | 59 | 1014.7 |
| 20260509072031 | 60 | 174 | 3.0 | 5.0 | 0.00 | 0.00 | 0.00 | 59 | 1014.8 |
| 20260509071026 | 60 | 177 | 4.0 | 6.0 | 0.00 | 0.00 | 0.00 | 59 | 1014.8 |
| 20260509070015 | 60 | 222 | 3.0 | 6.0 | 0.00 | 0.00 | 0.00 | 59 | 1014.9 |
| 20260509065016 | 60 | 196 | 4.0 | 7.0 | 0.00 | 0.00 | 0.00 | 59 | 1014.9 |
| 20260509064018 | 60 | 206 | 4.0 | 7.0 | 0.00 | 0.00 | 0.00 | 59 | 1015.0 |
| 20260509063019 | 60 | 207 | 5.0 | 6.0 | 0.00 | 0.00 | 0.00 | 59 | 1015.0 |
| 20260509062120 | 60 | 174 | 4.0 | 6.0 | 0.00 | 0.00 | 0.00 | 59 | 1015.1 |
| 20260509060021 | 60 | 185 | 4.0 | 7.0 | 0.00 | 0.00 | 0.00 | 62 | 1015.3 |
| 20260509055023 | 59 | 184 | 3.0 | 5.0 | 0.00 | 0.00 | 0.00 | 63 | 1015.3 |
| 20260509054024 | 58 | 199 | 3.0 | 5.0 | 0.00 | 0.00 | 0.00 | 65 | 1015.3 |
| 20260509053024 | 58 | 186 | 2.0 | 4.0 | 0.00 | 0.00 | 0.00 | 64 | 1015.3 |
| 20260509052126 | 59 | 169 | 2.0 | 4.0 | 0.00 | 0.00 | 0.00 | 63 | 1015.4 |
| 20260509051026 | 59 | 214 | 3.0 | 5.0 | 0.00 | 0.00 | 0.00 | 63 | 1015.3 |
| 20260509050021 | 58 | 233 | 3.0 | 6.0 | 0.00 | 0.00 | 0.00 | 65 | 1015.2 |
| 20260509045017 | 57 | 214 | 3.0 | 6.0 | 0.00 | 0.00 | 0.00 | 65 | 1015.3 |
| 20260509044030 | 56 | 0.0 | 0.0 | 0.00 | 0.00 | 0.00 | 68 | 1015.3 | |
| 20260509043031 | 55 | 0.0 | 0.0 | 0.00 | 0.00 | 0.00 | 69 | 1015.3 | |
| 20260509042032 | 55 | 0.0 | 0.0 | 0.00 | 0.00 | 0.00 | 69 | 1015.3 | |
| 20260509041014 | 54 | 0.0 | 0.0 | 0.00 | 0.00 | 0.00 | 69 | 1015.4 | |
| 20260509040015 | 54 | 0.0 | 0.0 | 0.00 | 0.00 | 0.00 | 68 | 1015.4 | |
| 20260509034019 | 55 | 0.0 | 0.0 | 0.00 | 0.00 | 0.00 | 67 | 1015.5 | |
| 20260509033020 | 56 | 0.0 | 0.0 | 0.00 | 0.00 | 0.00 | 65 | 1015.4 | |
| 20260509032121 | 56 | 0.0 | 0.0 | 0.00 | 0.00 | 0.00 | 64 | 1015.4 | |
| 20260509030023 | 58 | 0.0 | 0.0 | 0.00 | 0.00 | 0.00 | 62 | 1015.6 | |
| 20260509025018 | 58 | 0.0 | 0.0 | 0.00 | 0.00 | 0.00 | 61 | 1015.6 | |
| 20260509024025 | 58 | 0.0 | 0.0 | 0.00 | 0.00 | 0.00 | 61 | 1015.6 | |
| 20260509023026 | 58 | 0.0 | 0.0 | 0.00 | 0.00 | 0.00 | 61 | 1015.7 | |
| 20260509022027 | 58 | 0.0 | 0.0 | 0.00 | 0.00 | 0.00 | 60 | 1015.6 | |
| 20260509021028 | 59 | 0.0 | 0.0 | 0.00 | 0.00 | 0.00 | 60 | 1015.7 | |
| 20260509020030 | 59 | 0.0 | 0.0 | 0.00 | 0.00 | 0.00 | 58 | 1015.7 | |
| 20260509015031 | 61 | 0.0 | 0.0 | 0.00 | 0.00 | 0.00 | 56 | 1015.6 | |
| 20260509014115 | 61 | 0.0 | 0.0 | 0.00 | 0.00 | 0.00 | 54 | 1015.5 | |
| 20260509013016 | 62 | 0.0 | 0.0 | 0.00 | 0.00 | 0.00 | 53 | 1015.5 | |
| 20260509011018 | 64 | 0.0 | 0.0 | 0.00 | 0.00 | 0.00 | 50 | 1015.5 | |
| 20260509010020 | 64 | 0.0 | 0.0 | 0.00 | 0.00 | 0.00 | 49 | 1015.4 | |
| 20260509005022 | 65 | 0.0 | 0.0 | 0.00 | 0.00 | 0.00 | 48 | 1015.5 | |
| 20260509004017 | 65 | 0.0 | 0.0 | 0.00 | 0.00 | 0.00 | 48 | 1015.4 | |
| 20260509002025 | 68 | 39 | 2.0 | 3.0 | 0.00 | 0.00 | 0.00 | 45 | 1015.3 |
| 20260509001026 | 69 | 12 | 4.0 | 5.0 | 0.00 | 0.00 | 0.00 | 44 | 1015.2 |
| 20260509000027 | 70 | 34 | 1.0 | 4.0 | 0.00 | 0.00 | 0.00 | 43 | 1015.1 |
| 20260508235108 | 71 | 42 | 3.0 | 4.0 | 0.00 | 0.00 | 0.00 | 42 | 1015.0 |
| 20260508234029 | 71 | 43 | 4.0 | 5.0 | 0.00 | 0.00 | 0.00 | 40 | 1014.9 |
| 20260508233031 | 73 | 30 | 4.0 | 5.0 | 0.00 | 0.00 | 0.00 | 40 | 1014.8 |
| 20260508232032 | 74 | 27 | 2.0 | 6.0 | 0.00 | 0.00 | 0.00 | 38 | 1014.8 |
| 20260508231015 | 75 | 66 | 2.0 | 5.0 | 0.00 | 0.00 | 0.00 | 38 | 1014.7 |
| 20260508230017 | 76 | 0 | 3.0 | 5.0 | 0.00 | 0.00 | 0.00 | 37 | 1014.8 |
| 20260508225118 | 77 | 239 | 1.0 | 3.0 | 0.00 | 0.00 | 0.00 | 35 | 1014.8 |
| 20260508224019 | 77 | 284 | 4.0 | 6.0 | 0.00 | 0.00 | 0.00 | 35 | 1014.8 |
| 20260508223021 | 78 | 298 | 3.0 | 6.0 | 0.00 | 0.00 | 0.00 | 35 | 1014.8 |
| 20260508221023 | 77 | 324 | 6.0 | 8.0 | 0.00 | 0.00 | 0.00 | 35 | 1014.8 |
| 20260508220024 | 74 | 244 | 5.0 | 9.0 | 0.00 | 0.00 | 0.00 | 37 | 1014.8 |
| 20260508215026 | 75 | 266 | 7.0 | 10.0 | 0.00 | 0.00 | 0.00 | 36 | 1014.8 |
| 20260508213028 | 71 | 267 | 5.0 | 6.0 | 0.00 | 0.00 | 0.00 | 38 | 1015.1 |
| 20260508212029 | 73 | 275 | 6.0 | 9.0 | 0.00 | 0.00 | 0.00 | 37 | 1015.1 |
| 20260508211030 | 72 | 269 | 5.0 | 7.0 | 0.00 | 0.00 | 0.00 | 38 | 1015.0 |
| 20260508210112 | 71 | 264 | 6.0 | 8.0 | 0.00 | 0.00 | 0.00 | 38 | 1015.1 |
| 20260508205015 | 72 | 275 | 5.0 | 7.0 | 0.00 | 0.00 | 0.00 | 38 | 1015.2 |
| 20260508204016 | 72 | 260 | 7.0 | 12.0 | 0.00 | 0.00 | 0.00 | 36 | 1015.3 |
| 20260508203017 | 74 | 225 | 6.0 | 11.0 | 0.00 | 0.00 | 0.00 | 35 | 1015.2 |